TimeCST,TemperatureF,Dew PointF,Humidity,Sea Level PressureIn,VisibilityMPH,Wind Direction,Wind SpeedMPH,Gust SpeedMPH,PrecipitationIn,Events,Conditions,WindDirDegrees,DateUTC
12:53 AM,43.0,41.0,93,29.95,6.0,North,4.6,-,0.03,Rain,Light Rain,350,2012-12-07 06:53:00
1:10 AM,42.8,41.0,93,29.94,6.0,North,3.5,-,0.00,Rain,Light Rain,350,2012-12-07 07:10:00
1:34 AM,42.8,41.0,93,29.94,5.0,North,3.5,-,0.01,Rain,Light Rain,360,2012-12-07 07:34:00
1:43 AM,42.8,41.0,93,29.95,5.0,Calm,Calm,-,0.02,Rain,Light Rain,0,2012-12-07 07:43:00
1:53 AM,43.0,41.0,93,29.96,7.0,Calm,Calm,-,0.02,Rain,Light Rain,0,2012-12-07 07:53:00
2:53 AM,43.0,41.0,93,29.96,7.0,NNE,4.6,-,0.00,Rain,Light Rain,20,2012-12-07 08:53:00
3:08 AM,42.8,41.0,93,29.94,7.0,NNE,5.8,-,0.00,Rain,Light Rain,20,2012-12-07 09:08:00
3:21 AM,42.8,41.0,93,29.93,6.0,NNE,9.2,-,0.00,Rain,Light Rain,20,2012-12-07 09:21:00
3:53 AM,42.1,39.9,92,29.93,6.0,NNE,9.2,-,0.00,Rain,Light Rain,20,2012-12-07 09:53:00
4:53 AM,41.0,39.0,93,29.94,8.0,NE,3.5,-,0.01,Rain,Light Rain,40,2012-12-07 10:53:00
5:23 AM,41.0,39.2,93,29.93,7.0,NNE,3.5,-,0.01,Rain,Light Rain,30,2012-12-07 11:23:00
5:26 AM,41.0,39.2,93,29.93,7.0,NNE,4.6,-,0.01,Rain,Light Rain,30,2012-12-07 11:26:00
5:53 AM,41.0,39.0,93,29.95,7.0,Calm,Calm,-,0.01,Rain,Light Rain,0,2012-12-07 11:53:00
6:21 AM,41.0,39.2,93,29.94,8.0,NNE,4.6,-,0.01,Rain,Light Rain,30,2012-12-07 12:21:00
6:50 AM,41.0,39.2,93,29.93,8.0,NNE,10.4,-,0.01,Rain,Light Rain,30,2012-12-07 12:50:00
6:53 AM,41.0,39.0,93,29.94,8.0,NNE,10.4,-,0.01,Rain,Light Rain,30,2012-12-07 12:53:00
7:53 AM,39.9,37.9,93,29.94,6.0,NNE,9.2,-,0.00,,Overcast,20,2012-12-07 13:53:00
8:53 AM,41.0,39.0,93,29.93,6.0,NNE,8.1,-,N/A,,Overcast,30,2012-12-07 14:53:00
9:28 AM,41.0,39.2,93,29.92,5.0,NNE,9.2,-,N/A,,Overcast,30,2012-12-07 15:28:00
9:45 AM,41.0,39.2,93,29.92,5.0,NE,9.2,-,N/A,,Overcast,50,2012-12-07 15:45:00
9:53 AM,41.0,39.0,93,29.93,5.0,NE,8.1,-,N/A,,Overcast,50,2012-12-07 15:53:00
10:53 AM,42.1,39.0,89,29.93,7.0,NE,8.1,-,N/A,,Overcast,50,2012-12-07 16:53:00
11:53 AM,43.0,39.0,86,29.91,8.0,ENE,6.9,-,N/A,,Overcast,70,2012-12-07 17:53:00
12:53 PM,43.0,39.9,89,29.90,7.0,NNE,8.1,-,N/A,,Overcast,20,2012-12-07 18:53:00
1:06 PM,42.8,39.2,87,29.89,7.0,NNE,9.2,-,N/A,,Overcast,20,2012-12-07 19:06:00
1:53 PM,42.1,39.0,89,29.88,6.0,NNE,10.4,-,N/A,,Overcast,30,2012-12-07 19:53:00
2:53 PM,42.1,39.0,89,29.87,6.0,NE,8.1,-,N/A,,Overcast,40,2012-12-07 20:53:00
3:21 PM,42.8,39.2,87,29.86,6.0,NNE,9.2,-,N/A,,Overcast,30,2012-12-07 21:21:00
3:53 PM,42.1,39.0,89,29.88,6.0,NNE,6.9,-,N/A,,Overcast,20,2012-12-07 21:53:00
4:53 PM,42.1,39.0,89,29.88,7.0,NNE,8.1,-,N/A,,Overcast,30,2012-12-07 22:53:00
5:53 PM,42.1,39.0,89,29.89,7.0,NNE,6.9,-,N/A,,Overcast,20,2012-12-07 23:53:00
6:35 PM,41.0,37.4,87,29.89,6.0,North,6.9,-,0.00,Rain,Light Rain,360,2012-12-08 00:35:00
6:53 PM,41.0,39.2,93,29.89,2.5,North,9.2,-,N/A,Rain,Light Rain,10,2012-12-08 00:53:00
7:04 PM,39.2,39.2,100,29.89,2.5,North,9.2,-,0.01,Rain,Light Rain,360,2012-12-08 01:04:00
7:26 PM,39.2,37.4,93,29.89,1.8,North,10.4,-,0.02,Rain,Light Rain,10,2012-12-08 01:26:00
7:46 PM,39.2,37.4,93,29.90,2.0,North,9.2,-,0.03,Rain,Light Rain,360,2012-12-08 01:46:00
7:53 PM,39.0,37.9,96,29.92,1.8,North,6.9,-,0.03,Rain,Light Rain,360,2012-12-08 01:53:00
8:23 PM,39.2,37.4,93,29.90,2.5,North,9.2,-,0.03,Rain,Light Rain,360,2012-12-08 02:23:00
8:53 PM,39.0,37.9,96,29.92,2.5,North,9.2,-,0.03,Rain,Light Rain,10,2012-12-08 02:53:00
9:39 PM,39.2,37.4,93,29.89,3.0,NE,9.2,-,0.01,Rain,Light Rain,40,2012-12-08 03:39:00
9:53 PM,39.0,37.0,93,29.91,4.0,NNE,9.2,-,0.01,,Overcast,20,2012-12-08 03:53:00
10:53 PM,37.9,37.0,97,29.91,4.0,East,3.5,-,0.02,Rain,Light Rain,80,2012-12-08 04:53:00
11:03 PM,37.4,37.4,100,29.89,4.0,ENE,6.9,-,0.00,Rain,Light Rain,70,2012-12-08 05:03:00
11:15 PM,37.4,37.4,100,29.90,4.0,NNE,5.8,-,0.01,Rain,Light Rain,30,2012-12-08 05:15:00
11:29 PM,37.4,37.4,100,29.89,4.0,ENE,4.6,-,0.01,Rain,Light Rain,60,2012-12-08 05:29:00
11:53 PM,37.9,37.0,97,29.91,4.0,North,6.9,-,0.01,,Overcast,360,2012-12-08 05:53:00